Location: Milton Keynes
(52.0316°N, 0.7531°W)
Time: 04:48:28
(UTC+00:00)

ISS - Pass Details

Date: 26 January 2019
Orbit: 403 x 411 km, 51.6° (Epoch: 23 February)

Event Time Altitude Azimuth Distance (km) Brightness Sun altitude
Rises 19:44:40 0° 257° (WSW) 2,336 1.1 -28.2°
Reaches altitude 10° 19:46:45 10° 256° (WSW) 1,478 -0.2 -28.5°
Enters shadow 19:47:33 16° 255° (WSW) 1,153 -0.8 -28.7°
